Location: Bittelbronn
(48.4454°N, 8.5870°E)
Time: 16:47:09
(UTC+00:00)

Cosmos 1745 Rocket - Pass Details

Date: 23 May 2024
Orbit: 953 x 996 km, 83.0° (Epoch: 16 June)

Event Time Altitude Azimuth Distance (km) Brightness Sun altitude
Exits shadow 00:48:38 24° 170° (S) 1,877 5.0 -18.3°
Maximum altitude 00:52:26 67° 94° (E) 1,056 4.2 -18.0°
Drops below altitude 10° 00:58:40 10° 14° (NNE) 2,750 7.6 -17.6°
Sets 01:01:14 0° 12° (NNE) 3,708 8.6 -17.5°
